Hourly Data Report for September 24, 2016

All times are specified in Local Standard Time (LST). Add 1 hour to adjust for Daylight Saving Time where and when it is observed.

CORAL HARBOUR A
NUNAVUT

64°11'36.000" N
83°21'34.000" W
62.20 m
2301002
71915
YZS

Download Data

Hourly Data (September 2016)
Hourly Data Report for September 24, 2016
Temp Definition
°C
Dew Point Temp Definition
°C
Rel Hum Definition
%
Wind Dir Definition
10's deg

Wind Spd Definition
km/h
Visibility Definition
km
Stn Press Definition
kPa
Hmdx Definition


Wind Chill Definition


Weather Definition


TIME
00:00 Legend Double Dagger -0.2 -1.5 91 36 4 24.1 101.05   -1 LegendNANA
01:00 Legend Double Dagger -0.7 -1.6 94 3 11 24.1 101.09   -4 Clear
02:00 Legend Double Dagger -1.5 -2.2 95 35 13 24.1 101.11   -6 LegendNANA
03:00 Legend Double Dagger -1.3 -2.3 93 35 9 24.1 101.16   -5 LegendNANA
04:00 Legend Double Dagger -1.8 -2.8 93 35 14 24.1 101.20   -6 Clear
05:00 Legend Double Dagger -2.2 -3.0 94 34 13 24.1 101.24   -7 LegendNANA
06:00 Legend Double Dagger -1.6 -2.6 93 36 6 24.1 101.27   -4 LegendNANA
07:00 Legend Double Dagger -2.4 -3.4 93 34 13 24.1 101.28   -7 Clear
08:00 Legend Double Dagger -0.5 -1.5 93 33 5 24.1 101.32   -2 LegendNANA
09:00 Legend Double Dagger 1.5 -0.6 86 10 4 24.1 101.38     LegendNANA
10:00 Legend Double Dagger 2.3 0.0 85 27 3 24.1 101.42     Clear
11:00 Legend Double Dagger 3.7 0.9 82 21 8 24.1 101.45     LegendNANA
12:00 Legend Double Dagger 4.6 0.7 76 22 9 24.1 101.47     LegendNANA
13:00 Legend Double Dagger 4.9 1.2 77 20 7 24.1 101.49     Clear
14:00 Legend Double Dagger 4.6 1.8 82 20 10 24.1 101.52     LegendNANA
15:00 Legend Double Dagger 4.6 2.5 86 20 10 24.1 101.57     LegendNANA
16:00 Legend Double Dagger 4.4 2.3 86 22 9 24.1 101.60     Clear
17:00 Legend Double Dagger 3.6 2.3 91 18 9 24.1 101.59     LegendNANA
18:00 Legend Double Dagger 0.9 0.6 98 22 4 0.2 101.63     Fog
19:00 Legend Double Dagger 0.0 -0.1 99 16 3 0.2 101.63   -1 Fog
20:00 Legend Double Dagger -0.9 -1.0 99 7 3 0.2 101.65   -2 Freezing Fog
21:00 Legend Double Dagger -0.5 -0.6 99 11 7 0.0 101.70   -3 Freezing Fog
22:00 Legend Double Dagger -0.9 -1.0 99 10 5 0.2 101.72   -3 Freezing Fog
23:00 Legend Double Dagger -1.6 -1.7 99 7 6 0.2 101.74   -4 Freezing Fog

Notes on Data Quality.

Legend

  • E = Estimated
  • M = Missing
  • NA = Not Available
  • ‡ = Partner data that is not subject to review by the National Climate Archives
Date modified: